Location: Pinehill
(32.1047°N, 94.6054°W)
Time: 22:47:05
(UTC+00:00)

Hubble Space Telescope - Visible Passes

Search period start: 08 August 2022 00:00
Search period end: 18 August 2022 00:00
Orbit: 532 x 535 km, 28.5° (Epoch: 07 August)

Date Brightness Start Highest point End Pass type
(mag) Time Alt. Az. Time Alt. Az. Time Alt. Az.
08 Aug 1.4 02:03:44 10° WSW 02:07:34 38° SSE 02:10:01 19° ESE visible
08 Aug 3.2 03:44:27 10° WSW 03:45:16 15° WSW 03:45:16 15° WSW visible
09 Aug 1.3 01:51:36 10° WSW 01:55:30 42° S 01:58:44 14° ESE visible
09 Aug 2.8 03:32:24 10° W 03:33:57 21° WSW 03:33:57 21° WSW visible
10 Aug 1.2 01:39:30 10° WSW 01:43:27 46° S 01:47:20 10° E visible
10 Aug 2.3 03:20:22 10° W 03:22:35 28° WSW 03:22:35 28° WSW visible
11 Aug 1.2 01:27:24 10° WSW 01:31:23 49° S 01:35:22 10° E visible
11 Aug 1.9 03:08:20 10° W 03:11:08 34° SW 03:11:08 34° SW visible
12 Aug 1.6 02:56:20 10° W 02:59:39 38° SSW 02:59:39 38° SSW visible
13 Aug 1.6 02:44:20 10° W 02:48:07 36° SSW 02:48:09 36° SSW visible
14 Aug 1.7 02:32:21 10° WSW 02:36:02 31° SSW 02:36:39 30° S visible
15 Aug 2.1 02:20:24 10° WSW 02:23:55 27° SSW 02:25:09 23° SSE visible
16 Aug 2.3 02:08:30 10° WSW 02:11:48 23° SSW 02:13:40 17° SSE visible
17 Aug 2.6 01:56:40 10° WSW 01:59:41 20° SSW 02:02:14 12° SSE visible
